Date,TemperatureHighF,TemperatureAvgF,TemperatureLowF,DewpointHighF,DewpointAvgF,DewpointLowF,HumidityHigh,HumidityAvg,HumidityLow,PressureMaxIn,PressureMinIn,WindSpeedMaxMPH,WindSpeedAvgMPH,GustSpeedMaxMPH,PrecipitationSumIn
2013-2-1,62,51,43,47,41,29,99,73,46,30.54,30.43,10,1,10,0.00
2013-2-2,62,50,36,55,43,28,99,78,58,30.53,30.32,9,1,9,0.00
2013-2-3,69,56,47,56,48,37,99,79,36,30.40,30.25,7,1,7,0.00
2013-2-4,65,55,46,58,51,43,99,87,70,30.27,30.13,5,0,5,0.00
2013-2-5,68,61,55,68,61,55,99,99,99,30.19,30.09,8,0,8,0.26
2013-2-6,68,60,56,68,60,56,99,99,96,30.31,30.16,8,0,8,0.01
2013-2-7,76,65,58,71,64,57,99,96,76,30.19,29.92,11,1,11,2.44
2013-2-8,72,60,52,69,60,52,99,98,86,30.29,30.08,10,0,10,0.00
2013-2-9,63,56,47,60,55,47,99,96,79,30.42,30.27,8,1,8,0.00
2013-2-10,70,65,54,70,64,54,99,99,99,30.30,30.12,18,2,18,0.06
2013-2-11,78,66,59,78,66,59,99,99,97,30.24,30.15,11,0,12,0.43
2013-2-12,70,65,58,70,64,58,99,99,99,30.19,29.91,9,0,9,0.04
2013-2-13,70,56,47,70,55,47,99,96,73,30.21,29.92,9,1,9,0.14
2013-2-14,57,48,43,49,46,42,99,93,68,30.31,30.16,7,0,7,0.00
2013-2-15,67,52,39,57,46,39,99,85,53,30.32,30.18,5,1,5,0.00
2013-2-16,56,49,37,50,34,21,99,62,34,30.44,30.19,15,3,15,0.00
2013-2-17,54,44,32,40,30,22,95,62,36,30.55,30.43,8,1,8,0.00
2013-2-18,66,56,42,61,50,40,99,81,62,30.47,30.20,18,3,18,0.00
2013-2-19,70,61,44,65,53,36,99,78,42,30.35,30.14,10,1,10,0.53
2013-2-20,59,49,41,43,34,28,98,61,37,30.41,30.23,8,1,8,0.00
2013-2-21,67,57,43,66,53,38,99,87,63,30.25,30.05,11,2,11,0.00
2013-2-22,70,67,66,70,67,65,99,99,99,30.14,30.01,4,0,4,1.24
2013-2-23,70,62,58,70,62,57,99,99,99,30.09,29.91,5,0,5,0.48
2013-2-24,73,61,52,67,60,52,99,96,76,30.14,30.00,5,0,5,0.02
2013-2-25,69,64,59,69,63,58,99,99,99,30.02,29.68,11,1,11,3.93
2013-2-26,66,58,52,66,54,48,99,88,65,30.06,29.67,5,0,5,0.12
2013-2-27,66,55,46,53,50,46,99,84,55,30.18,30.05,1,0,1,0.00
2013-2-28,63,55,46,52,42,37,99,66,45,30.22,30.10,5,0,5,0.00